User: anonymous   Login
Location: Cherry Springs State Park
(41.6616°N, 77.8240°W)
Time: 15:44:26
(UTC-04:00)
Language:

Cosmos 1437 - Orbit

View from above orbital plane
View from above orbital plane
View from above satellite
View from above satellite

Ground track
Ground track

The orbit data is extracted from the following two-line orbital elements,

1 13770U 83003A   15208.44132890  .00004912  00000-0  11925-3 0  9996
2 13770 081.1621 270.4862 0009436 155.1938 301.3956 15.40747808779769
Epoch (UTC): 27 July 2015 10:35:30
Eccentricity: 0.0009436
inclination: 81.1621°
perigee height: 437 km
apogee height: 450 km
right ascension of ascending node: 270.4862°
argument of perigee: 155.1938°
revolutions per day: 15.40747808
mean anomaly at epoch: 301.3956°
orbit number at epoch: 77976

The dashed part of the orbit path shows where the satellite is in the earth's shadow,  

DLR